Location: Unsp...
(0.0000°N, 0.0000°E)
Time: 19:30:49
(UTC+01:00)

Daily predictions for brighter satellites

Satellite Brightness Start Highest point End
(mag) Time Altitude Azimuth Time Altitude Azimuth Time Altitude Azimuth
Thor Agena Rocket 3.9 19:12:44 10° NNE 19:17:48 48° ESE 19:22:53 10° S
Mugunghwa Rocket 4.3 19:11:03 10° NW 19:17:51 75° NNE 19:25:29 10° ESE
Fermi 3.8 19:15:19 10° NW 19:19:22 63° NNE 19:23:25 10° ESE
Cosmos 1269 Rocket 4.3 19:17:13 10° N 19:22:14 45° ENE 19:27:15 10° SSE
ERS-2 2.9 19:19:47 10° SE 19:23:01 30° ENE 19:26:14 10° NNE
ARIANE 5 R/B 2.3 19:22:53 10° W 19:25:14 86° N 19:32:50 10° E
ATLAS 3B R/B 2.8 19:20:37 10° N 19:26:52 50° ENE 19:33:13 10° SE
Cosmos 2082 3.7 19:21:45 10° N 19:27:18 61° ENE 19:32:52 10° SSE
CZ-4 R/B 2.5 19:24:11 10° S 19:27:52 47° WSW 19:31:33 10° NNW
Cosmos 1048 Rocket 4.0 19:22:56 10° N 19:28:14 72° ENE 19:33:29 10° SSE
Meteor 1-15 Rocket 4.3 19:22:58 10° N 19:28:47 74° E 19:34:32 10° S
Cosmos 2360 Rocket 2.8 19:23:55 10° S 19:29:03 36° ESE 19:34:09 10° NE
Cosmos 1553 Rocket 4.1 19:22:59 10° S 19:29:22 90° ESE 19:35:47 10° N
COSMOS 2428 4.5 19:32:11 10° SE 19:34:49 13° ESE 19:37:16 10° E
Meteor 1-21 4.4 19:30:54 10° S 19:36:30 52° E 19:41:59 10° NNE
IUS-18 SRM-1 1.9 19:31:28 10° WSW 19:36:50 86° NNW 19:38:43 14° ENE
ARIANE 5 R/B 3.8 19:32:02 10° WNW 19:37:08 58° NNE 20:20:59 10° E
ARIANE 5 R/B 3.8 19:32:01 10° WNW 19:37:08 58° NNE 20:21:00 10° E
ARIANE 5 R/B 3.8 19:32:02 10° WNW 19:37:09 58° NNE 20:20:59 10° E
Cosmos 2227 Rocket 2.5 19:31:57 10° NNW 19:37:34 75° WSW 19:43:11 10° S
ATLAS 3B CENTAUR R/B 2.4 19:38:15 10° WNW 19:39:41 16° NNW 19:41:34 10° NNE
Ariane H10+ 3.2 19:23:10 10° W 19:39:54 48° NNW 19:43:07 14° ENE
ASTRO E2 4.0 19:37:39 10° WNW 19:41:27 42° SSW 19:45:16 10° SE
NOAA 12 4.0 19:43:42 10° SSE 19:48:58 67° ENE 19:54:11 10° N
MOS 1 4.3 19:43:43 10° SSE 19:49:26 89° ENE 19:55:07 10° NNW
Cosmos 2315 Rocket 4.3 19:49:54 10° SSE 19:55:50 43° E 20:01:41 10° NNE
BLOCK DM-SL R/B -0.3 19:54:44 10° W 19:56:49 89° N 19:57:25 38° E
Cosmos 839 Rocket 4.5 19:54:04 10° SSW 20:00:11 61° WNW 20:06:20 10° N
Milstar 3 Cent rocket 4.1 19:44:03 10° WSW 20:02:30 73° NW 20:08:57 20° NE
Cosmos 2297 Rocket 3.3 19:58:23 10° NNW 20:03:46 47° WSW 20:09:11 10° S
Cosmos 2056 Rocket 3.5 19:59:29 10° S 20:04:45 61° ESE 20:08:36 18° NNE
Cosmos 1842 3.3 20:02:19 10° S 20:06:10 76° W 20:10:01 10° N
Cosmos 1356 Rocket 4.2 20:03:04 10° SSE 20:06:35 28° E 20:06:49 28° E
Cosmos 1745 Rocket 4.2 20:01:15 10° NNE 20:07:16 50° E 20:13:22 10° SSE
ARIANE 5 DEB (SYLDA) 4.4 20:04:11 10° WNW 20:07:30 62° N 20:14:35 21° E
USA 234 4.1 20:05:32 21° E 20:08:58 34° SE 20:14:43 10° S
FENGYUN 3A 4.0 20:03:56 10° S 20:09:18 67° WSW 20:14:37 10° NNW
ARIANE 5 DEB (SYLDA) 3.7 19:56:41 10° W 20:09:36 89° N 20:11:39 30° E
ISS -4.0 20:15:44 10° NNW 20:19:00 82° NE 20:19:43 51° SE
Aureole 2 Rocket 2.6 20:20:33 10° S 20:24:26 67° ESE 20:24:56 59° ENE
ALOS 4.1 20:20:41 10° SSW 20:24:50 32° WSW 20:29:00 10° NW
Cosmos 1238 Rocket 4.4 20:25:38 10° SSW 20:29:47 43° W 20:34:47 10° NNW
Cosmos 2237 4.4 20:29:46 10° SSW 20:35:28 70° WNW 20:38:39 27° N
FREGAT/IRIS 4.1 20:34:46 10° S 20:37:33 36° W 20:38:07 32° WNW
Cosmos 2058 Rocket 3.5 20:36:51 16° NNW 20:40:18 61° W 20:44:42 10° S
CZ-3C R/B 3.8 20:38:14 10° SSE 20:40:33 13° SE 20:41:23 13° SE
ATLAS 2AS CENTAUR RB 3.2 20:43:27 10° WNW 20:44:37 17° NW 20:44:37 17° NW
OAO 2 Rocket 3.9 20:41:30 10° WSW 20:46:18 45° NW 20:46:52 43° NNW
Centaur D-1A AC-32 2.9 20:43:41 10° W 20:47:31 39° NW 20:47:31 39° NW
CZ-3A R/B 4.1 20:45:47 10° S 20:49:19 23° SE 20:50:03 23° SE
SJ-6B 3.5 20:49:40 10° S 20:53:39 55° WSW 20:53:44 55° W
Cosmos 2251 Rocket 3.9 20:54:23 10° NNW 20:59:31 62° WSW 21:04:41 10° S
Cosmos 967 Rocket 4.3 20:53:17 10° SSW 20:59:32 88° ESE 21:00:06 75° NNE
USA 215 3.1 20:53:45 10° SE 21:00:20 86° NE 21:06:52 10° NW
Cosmos 1709 Rocket 4.0 21:02:17 67° ESE 21:02:17 67° ESE 21:08:07 10° S
ARIANE 5 DEB (SYLDA) 4.0 20:58:55 10° W 21:08:33 42° NW 21:08:33 42° NW
Cosmos 2333 Rocket 2.8 21:09:58 10° SSW 21:14:01 48° S 21:14:01 48° S
COSMOS 2428 3.7 21:13:31 10° SW 21:18:48 41° WNW 21:19:20 40° WNW
Cosmos 2219 Rocket 2.8 21:15:21 10° SSW 21:19:39 53° SW 21:19:39 53° SW
Cosmos 2237 Rocket 4.0 21:35:22 10° SSW 21:37:30 24° S 21:37:30 24° S
USA 234 4.4 21:52:54 34° WNW 21:52:54 34° WNW 21:57:36 10° WSW
Ariane H10 4.1 21:19:27 10° W 21:54:03 73° S 21:54:03 73° S
Centaur D AC-29 3.8 21:55:24 10° W 22:01:02 53° SSW 22:40:38 10° ESE
Centaur D AC-29 3.8 21:55:24 10° W 22:01:03 53° SSW 22:40:38 10° ESE
Centaur D AC-29 3.8 21:55:24 10° W 22:01:03 53° SSW 22:40:37 10° ESE
